Theta_e
329 317 315 316 312 308 309 298 290 286 289 284 283 285 285 293 296 296 295 297 296 301 308 320 312 318 312 312 313 318 323 313 311 306 302 313 333 344 347 350 352 352 352 354 355 354 353 355 354 353 353 353 353 352 351 351 350 349 349 349 349 350 349 349 349 349 348 348 348 347 347 346 346 345 345 344 344 344 345 345 345 345 345 347 349 349 349 349 348 347 348 349 348 348 347 348 347
318 310 312 314 311 309 304 291 285 287 283 281 285 285 288 292 296 293 294 296 296 318 322 325 326 327 327 327 327 323 319 330 330 326 333 341 344 345 349 351 352 351 353 354 354 353 353 354 354 353 353 353 353 351 351 350 350 349 349 349 349 349 349 349 349 348 348 348 347 347 347 347 345 345 344 344 344 345 347 345 345 345 346 346 347 349 349 348 349 348 349 348 349 349 347 346 344
315 309 311 310 308 305 302 295 288 281 284 280 281 288 291 293 292 294 297 298 296 319 319 322 323 322 320 319 311 313 312 332 334 336 335 341 337 339 349 351 352 352 353 354 354 353 353 353 354 353 353 353 351 351 350 350 350 349 350 349 349 349 349 348 349 348 348 348 348 348 347 346 346 345 345 345 344 345 346 345 344 345 346 346 347 347 348 348 349 349 348 348 348 348 346 344 345
310 311 305 305 304 297 296 290 283 284 282 280 283 288 290 292 293 296 296 295 296 312 314 322 319 324 320 317 317 326 323 326 333 336 334 337 335 345 349 351 353 353 354 354 353 353 353 354 354 353 353 351 351 351 351 351 350 349 349 349 349 349 349 349 349 348 348 348 348 347 347 346 346 346 345 345 344 344 346 347 345 345 346 346 346 346 346 347 348 348 347 347 348 346 344 345 346
309 311 309 301 299 297 294 291 285 282 284 283 282 286 292 292 295 294 294 295 296 300 308 322 318 325 324 323 324 314 318 331 334 338 335 338 347 349 349 352 352 352 352 353 353 353 352 355 354 353 352 352 351 351 351 349 350 349 349 348 349 349 349 349 348 348 348 348 347 347 347 347 347 346 346 346 345 345 345 344 346 346 347 347 346 346 346 347 347 347 347 346 346 344 346 347 346
304 306 309 309 303 299 294 290 289 286 289 287 288 290 291 293 294 294 296 297 297 296 304 319 315 320 323 326 327 320 329 324 332 335 337 338 347 350 351 352 351 351 352 353 353 352 352 354 353 353 353 352 352 352 351 352 350 349 349 348 349 349 349 348 348 347 347 347 347 347 346 346 346 346 346 346 346 346 347 347 347 347 347 347 346 346 346 346 347 347 346 345 344 345 346 346 345
301 304 301 302 299 297 289 284 285 286 293 292 290 293 296 296 296 297 298 299 300 318 323 322 324 322 320 323 329 334 337 336 335 335 341 344 349 350 351 351 350 350 352 352 352 352 353 353 353 353 353 352 352 352 351 352 351 349 350 349 349 349 349 348 348 348 348 347 347 346 346 346 346 346 346 347 348 347 347 346 346 347 346 347 347 347 347 347 347 347 345 344 344 345 345 345 344
309 305 300 293 290 294 289 286 288 288 291 295 296 296 299 299 299 298 298 297 296 315 319 324 323 317 317 329 319 333 338 340 339 343 346 348 349 349 350 350 349 350 351 352 352 352 355 353 353 353 353 353 353 353 353 352 351 351 351 349 349 349 349 348 348 348 348 347 347 346 346 346 346 346 347 347 347 347 347 347 348 348 348 347 347 346 346 347 347 346 344 344 344 345 345 345 344
305 300 301 293 292 288 284 287 288 292 293 295 298 300 309 304 302 300 297 296 297 315 321 323 322 313 316 326 326 333 333 341 343 345 346 348 348 349 349 349 349 349 350 351 352 352 352 353 353 352 353 353 354 353 353 352 352 352 350 349 349 350 350 349 348 347 348 348 347 346 346 346 346 346 346 346 347 347 348 349 348 348 347 347 347 347 347 347 347 345 344 344 345 344 345 345 343
302 300 294 292 287 288 284 286 288 290 291 294 295 297 297 297 298 297 296 295 297 319 322 326 322 314 326 324 327 328 330 339 342 343 346 347 347 348 348 349 350 349 350 351 352 352 352 355 353 353 353 354 353 353 353 352 352 351 351 350 350 351 350 350 349 349 348 348 349 348 347 347 346 346 346 346 347 348 349 349 348 347 347 347 347 347 348 348 347 346 346 346 345 345 345 345 344
297 296 294 293 287 285 286 283 286 292 293 295 296 298 299 299 297 296 295 295 313 319 323 326 323 322 326 327 330 338 337 340 340 338 343 345 346 347 347 350 350 350 349 351 352 352 352 352 354 353 353 354 353 352 352 353 352 352 352 351 351 351 350 350 350 348 348 349 348 348 348 347 346 346 346 347 349 349 349 349 347 347 347 347 347 347 347 346 345 345 345 345 346 346 345 345 344
296 296 292 285 284 285 284 286 289 292 294 294 295 297 295 297 295 294 300 309 316 319 320 322 320 326 323 326 329 334 336 337 336 340 341 343 345 347 348 349 350 351 351 351 352 351 351 352 352 354 354 354 353 353 352 352 352 352 352 352 352 351 350 349 350 349 349 349 349 349 348 347 346 346 347 348 350 349 349 348 347 347 347 347 347 347 346 345 345 345 345 345 346 347 345 344 343
295 290 287 287 284 287 288 288 289 296 293 293 294 295 295 294 294 293 303 314 317 318 316 322 328 324 318 324 333 335 332 334 337 338 340 342 344 347 349 349 350 351 351 351 350 350 350 351 351 351 352 354 353 353 352 352 352 352 351 351 351 351 351 350 350 350 350 350 349 349 348 347 347 347 348 350 350 350 349 348 347 346 347 347 347 347 346 345 345 344 345 345 346 346 346 344 343
296 293 291 289 287 285 286 287 286 290 287 291 291 293 294 297 297 299 315 313 313 314 322 328 329 328 325 330 331 330 331 335 337 339 341 343 346 347 347 349 349 350 351 350 349 350 350 350 350 349 350 350 350 352 352 352 352 352 351 351 351 351 350 350 350 350 350 350 349 349 348 348 348 348 349 350 349 349 348 347 347 347 347 347 346 347 345 345 345 345 345 345 346 346 346 343 343
301 294 290 287 286 286 287 290 288 286 288 290 292 295 295 300 298 304 313 313 318 325 330 331 330 319 319 325 325 330 333 337 337 340 342 344 345 346 346 347 348 348 349 349 350 350 349 349 348 348 348 348 348 348 349 351 352 351 351 351 350 349 350 350 351 350 350 350 349 348 348 347 348 348 349 349 349 348 347 346 346 346 346 347 346 346 346 346 346 344 344 345 345 346 345 344 343
300 291 289 290 286 286 288 289 287 287 290 291 292 293 296 298 297 304 306 316 322 329 326 321 328 316 321 327 326 334 337 337 338 341 342 342 343 344 344 345 345 345 345 347 348 349 350 349 349 347 347 346 346 346 347 348 350 351 350 350 350 349 349 350 350 350 351 350 350 349 349 348 348 348 350 349 349 348 347 345 346 346 346 346 346 346 346 346 345 344 344 344 343 343 344 343 342
295 294 291 282 286 285 286 288 286 285 287 289 292 294 294 296 297 315 320 325 324 321 328 329 329 333 328 329 332 338 338 338 339 340 340 339 340 339 341 341 341 342 343 346 347 348 349 349 348 347 347 346 347 347 346 347 349 350 348 350 350 349 350 350 349 350 349 348 348 348 347 346 346 346 347 346 348 347 346 346 346 346 346 346 346 346 346 346 345 346 345 344 344 343 343 342 342
296 292 284 285 284 286 288 289 288 292 292 292 294 293 293 294 300 313 321 322 324 325 327 330 334 332 333 335 339 339 337 336 337 336 337 336 337 336 336 338 339 337 340 342 347 348 348 348 348 347 347 347 348 348 347 346 347 347 345 345 346 346 348 349 347 346 347 344 346 346 343 346 342 343 344 347 345 347 346 346 346 346 346 346 346 346 345 345 345 345 344 344 344 344 343 340 341
293 286 287 288 285 290 292 290 291 292 291 291 294 293 293 294 295 298 315 315 317 320 325 329 328 332 335 337 337 336 335 334 335 336 335 335 336 334 335 336 336 338 339 341 343 347 347 347 348 347 347 347 347 346 347 346 344 343 344 344 345 346 346 346 344 345 342 342 343 343 344 342 341 343 344 345 345 346 346 346 346 346 346 346 346 346 345 346 346 345 344 343 342 340 336 336 336
294 288 286 288 290 291 291 292 293 292 293 295 294 293 293 294 295 297 312 313 316 316 318 322 325 328 333 335 335 334 334 333 334 334 334 335 334 331 331 335 336 337 338 340 342 345 347 346 347 347 347 347 346 346 346 345 345 344 343 342 342 342 343 343 341 341 342 341 341 340 341 342 341 341 347 348 347 344 345 346 346 346 346 345 345 345 345 345 346 345 343 341 337 335 334 335 335
293 293 287 289 289 291 294 293 294 295 294 294 293 292 294 294 294 304 311 312 309 309 318 322 323 329 333 335 334 334 333 333 333 334 334 335 332 330 329 328 332 335 338 341 342 343 345 346 346 346 346 346 346 346 346 345 345 345 344 342 341 342 340 340 340 339 340 340 340 340 340 340 339 340 342 342 340 341 341 340 340 337 336 336 340 334 336 339 337 336 335 334 333 333 333 333 332
292 294 293 290 291 291 295 295 293 293 293 293 291 293 296 295 298 310 311 304 300 306 313 324 328 331 334 334 333 333 333 332 332 333 333 332 329 328 328 328 331 334 338 338 340 343 344 345 345 345 345 345 345 345 345 345 346 344 344 344 343 342 340 339 338 339 338 338 339 340 340 339 338 339 339 339 339 341 340 338 336 335 334 334 336 331 331 333 333 334 334 334 333 332 332 332 331
291 291 292 291 293 293 294 295 295 294 293 292 293 294 294 293 296 298 297 297 297 303 316 325 331 334 336 336 334 331 331 332 332 332 333 331 329 328 327 327 329 331 336 337 341 342 344 344 345 345 344 344 344 346 345 345 344 344 344 344 343 342 341 339 338 338 338 338 338 340 339 339 338 338 339 340 340 341 339 337 336 334 333 333 334 330 330 329 331 333 332 331 332 332 331 330 328
295 291 290 294 292 294 295 296 295 292 292 294 294 293 294 293 295 294 294 294 294 298 309 330 333 336 337 333 333 331 331 332 332 333 334 332 330 329 329 327 329 332 333 336 339 341 343 343 344 344 343 344 343 344 344 344 344 344 344 344 343 343 342 340 339 338 338 338 338 338 340 338 337 338 339 340 339 340 338 336 336 334 333 332 334 332 330 328 328 329 329 329 331 332 331 330 328
292 292 292 294 294 293 294 293 293 292 292 293 293 293 295 293 294 294 294 298 316 327 330 332 334 335 335 333 332 331 331 332 332 333 334 335 332 331 329 328 329 331 331 335 338 340 342 343 343 343 342 342 342 343 342 343 343 343 343 341 341 344 342 341 338 338 338 338 338 338 339 336 335 338 338 339 339 339 337 335 335 334 332 332 332 330 329 327 327 326 327 327 327 330 331 330 329
292 294 293 293 294 294 293 292 292 292 293 294 293 293 292 291 292 295 294 313 322 329 331 331 332 333 333 332 332 331 330 331 332 331 333 334 332 330 328 328 328 329 331 334 337 339 341 342 342 341 341 341 341 341 341 342 342 342 341 340 341 343 341 339 336 335 339 338 337 337 338 337 336 337 338 339 338 337 337 335 334 333 332 332 333 331 329 327 325 325 326 326 327 330 331 332 330
292 293 294 294 295 293 292 292 292 292 291 292 293 291 292 292 295 289 293 302 326 328 328 329 331 331 332 332 332 331 329 330 331 331 332 332 331 329 328 328 329 329 332 334 336 338 340 340 340 341 340 341 340 340 340 341 342 341 342 341 341 340 341 339 336 336 339 338 338 338 337 337 336 336 338 338 338 337 336 335 333 332 331 331 331 332 330 328 325 325 327 326 326 329 332 332 330
291 292 293 292 290 290 291 289 291 292 293 291 293 292 292 293 293 289 293 308 326 325 326 328 330 331 331 332 332 331 329 329 330 330 329 330 330 330 328 327 328 329 331 333 335 337 338 337 338 338 338 340 339 339 340 340 340 340 341 341 341 341 341 339 337 338 338 338 338 337 337 336 337 335 337 337 337 337 336 335 333 331 331 331 331 331 329 328 327 327 328 328 327 330 331 330 331
293 292 291 288 288 292 290 291 291 291 293 292 292 293 291 290 290 292 294 309 323 324 324 326 327 329 331 332 332 331 329 328 329 329 330 331 332 331 329 328 328 329 330 334 336 336 336 335 337 337 338 339 337 337 338 339 340 339 339 340 340 341 340 338 337 338 338 338 337 337 336 336 336 335 335 336 338 337 336 334 333 332 332 331 331 330 330 329 330 329 329 330 330 330 330 329 330
294 291 289 289 284 286 290 290 291 291 294 290 294 285 284 287 290 291 293 318 320 321 323 325 325 327 329 331 331 331 330 327 326 327 328 330 331 329 328 328 330 330 331 334 336 336 337 337 337 337 337 335 335 336 337 337 337 337 337 339 340 340 339 337 338 338 339 339 338 336 336 336 335 335 335 334 336 335 334 333 332 332 332 331 330 330 330 329 328 328 329 330 331 329 328 328 328
289 290 287 284 285 284 288 289 291 292 293 291 295 287 285 288 291 292 291 317 320 319 322 324 322 324 327 329 330 329 329 327 325 325 326 327 328 329 328 329 331 330 331 332 331 334 337 337 336 335 335 334 336 334 335 336 336 336 336 337 339 339 339 338 338 338 338 338 338 337 336 335 335 334 335 334 334 333 333 332 331 332 332 331 331 330 330 329 329 329 330 329 328 328 327 328 327
286 286 282 281 283 282 286 290 291 292 294 293 292 285 287 290 290 291 293 315 316 317 320 322 322 323 325 327 328 328 328 327 326 327 325 326 327 328 329 329 330 330 330 333 332 335 336 336 335 334 334 333 334 333 334 335 335 334 335 337 336 338 339 338 336 336 337 337 337 336 336 335 334 334 334 334 333 333 332 332 332 332 333 332 331 330 330 329 328 328 329 330 327 326 326 325 327
281 283 281 285 283 281 286 292 289 291 292 293 292 285 284 289 290 290 294 315 314 314 317 319 320 321 323 324 327 327 325 325 328 327 325 325 325 327 329 330 330 330 331 333 333 334 334 335 336 334 333 333 332 332 331 332 332 333 334 336 335 337 338 337 335 334 335 334 334 335 335 335 333 333 333 333 333 332 332 332 331 332 333 333 331 330 330 329 328 328 328 330 330 327 326 325 327
282 282 284 282 284 284 284 286 291 289 291 291 289 289 287 290 290 290 293 312 311 310 313 316 318 320 322 323 324 324 325 326 328 327 324 325 325 326 328 331 330 330 331 334 335 335 334 334 334 333 333 332 332 332 332 332 332 332 332 333 335 335 337 337 336 335 334 333 334 334 335 335 334 332 332 332 332 332 332 332 330 332 333 333 331 330 329 328 328 329 327 328 330 328 326 326 326
280 283 283 285 283 285 285 285 290 291 289 291 288 289 289 290 290 290 292 296 305 310 309 311 314 316 318 319 322 322 324 326 328 326 324 324 325 327 329 329 329 330 332 334 335 334 333 332 332 332 332 331 331 330 330 329 330 330 330 332 333 333 336 336 335 334 333 333 333 334 333 335 335 332 331 331 330 332 331 330 330 332 333 332 330 329 328 328 328 328 328 328 329 329 328 327 326
283 282 281 281 283 284 286 286 288 291 290 289 287 288 289 290 290 290 292 296 299 301 304 305 312 313 315 318 316 319 322 323 325 324 324 325 326 327 328 329 330 330 332 334 333 333 332 331 331 330 331 331 330 328 329 328 329 330 330 332 333 333 334 335 333 333 333 333 333 333 333 333 334 333 331 331 331 332 330 330 331 332 332 331 329 328 327 327 327 327 327 328 328 329 329 328 328
284 284 282 283 284 283 284 286 289 290 290 287 287 288 287 288 291 294 294 302 306 303 299 306 308 311 312 313 315 317 320 321 323 323 324 325 326 327 328 328 329 330 331 333 331 332 332 331 330 329 329 329 329 329 329 329 328 329 330 330 330 332 332 334 333 332 332 332 333 333 333 333 333 333 333 331 330 334 331 330 331 331 332 331 330 329 329 328 328 328 328 329 328 326 326 328 327
286 283 284 282 283 284 285 289 289 290 292 285 285 287 286 291 297 300 306 307 306 306 306 304 301 308 311 313 313 314 317 320 323 323 325 326 327 329 329 328 329 328 330 332 331 331 332 331 329 329 327 327 328 329 329 329 329 329 328 329 329 331 331 333 332 330 331 332 332 333 333 333 333 333 334 331 331 332 330 329 331 331 331 330 330 329 329 330 328 328 328 327 329 327 325 327 327
285 285 283 284 282 283 286 288 290 291 290 285 285 286 289 292 297 302 304 306 308 311 311 310 309 306 308 312 311 312 315 318 321 323 324 326 328 329 329 329 329 329 330 331 332 331 331 331 330 328 326 327 327 329 329 329 330 331 329 328 329 329 333 334 334 331 331 331 332 332 333 333 332 332 333 332 330 331 331 330 330 331 331 331 329 328 328 328 327 327 327 327 326 329 327 328 327
283 283 282 282 282 285 283 286 289 290 288 287 285 287 287 288 294 302 305 308 311 312 313 313 314 311 308 310 312 312 315 317 319 321 323 326 327 328 328 328 329 329 330 331 331 331 331 331 331 329 327 326 326 327 329 328 329 331 331 330 330 329 331 336 336 334 332 331 331 332 333 332 332 331 332 332 331 331 331 330 330 331 331 332 330 328 327 327 327 326 326 328 328 325 325 325 328
285 284 280 282 285 284 284 285 288 288 291 288 286 285 285 288 294 297 303 311 312 312 312 313 315 315 312 310 310 311 315 318 319 321 323 325 326 327 327 328 329 329 329 330 331 331 331 331 331 329 327 324 324 326 327 327 329 329 331 331 331 330 333 334 333 331 333 332 332 331 332 332 332 331 332 332 332 330 330 331 330 331 331 331 331 329 328 327 327 327 327 328 328 326 324 325 327
285 285 285 284 283 285 284 287 286 280 286 286 284 276 281 285 294 295 299 309 309 312 311 311 314 315 314 312 312 315 317 320 321 321 322 325 326 327 328 328 327 326 327 329 331 331 330 330 330 328 327 325 325 325 326 327 328 329 329 328 327 328 328 328 328 328 329 330 331 332 333 332 332 331 331 332 332 331 329 330 330 330 330 331 331 330 329 328 327 326 327 328 327 329 327 325 324
282 284 287 286 286 285 286 287 285 280 281 288 287 279 277 281 293 295 299 306 307 311 311 312 313 314 315 314 315 316 317 319 322 322 323 324 325 326 327 326 324 322 322 324 325 326 326 326 326 327 327 327 327 328 328 329 328 330 330 330 330 329 328 329 331 332 331 332 333 332 332 332 332 331 331 331 331 331 329 329 329 330 331 330 331 330 329 327 327 328 328 327 327 328 328 324 324
280 283 287 288 286 285 286 285 284 282 284 287 283 281 280 281 289 294 298 303 306 307 310 311 312 314 315 316 316 317 317 319 320 321 322 323 322 321 320 321 321 321 322 324 324 324 324 325 325 325 327 328 328 329 330 330 330 330 329 329 329 329 329 328 329 330 332 331 331 331 331 331 332 331 330 331 331 331 329 328 329 329 329 330 331 330 329 329 328 328 328 327 328 328 328 325 325
283 286 289 287 289 286 285 285 282 281 284 284 280 283 280 279 286 296 301 299 302 305 308 310 312 313 314 316 317 318 319 320 321 319 319 319 319 319 320 319 321 321 322 321 323 324 325 325 326 326 327 327 327 329 330 330 330 330 329 329 328 328 329 328 329 330 329 330 329 330 330 330 331 331 331 330 331 331 331 329 328 328 328 329 331 330 330 329 328 327 327 326 326 327 328 326 327
288 287 289 288 288 286 285 282 284 281 280 277 281 282 277 280 290 296 300 300 300 303 307 309 311 312 313 314 315 318 320 320 320 318 318 319 319 319 320 320 320 320 320 320 321 323 324 324 324 325 325 325 326 327 330 330 330 329 329 328 328 327 328 327 328 327 328 328 328 328 329 329 329 330 330 330 329 330 331 330 329 328 328 329 331 330 329 328 328 327 328 327 327 327 327 326 326
289 289 287 285 284 282 283 281 280 280 275 276 278 281 279 279 289 296 297 298 302 305 306 309 311 312 313 313 313 314 315 316 316 316 316 317 318 318 319 318 319 319 319 319 321 323 325 325 324 324 324 325 326 327 329 329 329 329 328 328 328 327 327 327 327 327 327 327 327 327 328 327 327 328 328 329 329 330 330 330 329 329 329 330 331 329 329 329 328 328 328 327 326 326 326 325 325
289 286 283 284 282 280 278 277 278 273 272 275 281 284 282 280 286 298 304 306 306 306 305 307 308 309 309 310 310 310 311 312 312 312 312 313 314 315 317 318 319 320 321 320 321 323 323 324 324 324 324 325 327 327 327 328 329 329 328 328 328 328 328 328 328 327 328 327 327 327 326 325 325 327 328 328 328 329 330 330 330 329 329 329 330 330 330 330 329 328 327 326 326 326 326 326 325
286 285 286 282 276 274 274 276 276 273 276 282 282 283 285 286 292 301 304 305 307 308 308 307 306 306 306 307 308 309 309 310 310 310 310 310 311 311 313 315 317 318 319 321 321 323 324 323 323 323 323 325 326 327 326 327 328 328 328 328 329 329 329 329 329 328 329 329 328 326 325 324 324 325 326 327 329 329 329 328 328 328 327 328 329 329 329 330 329 328 327 326 327 326 326 326 324
285 285 281 279 274 271 268 271 269 275 279 280 280 283 284 294 299 304 304 306 309 309 308 307 306 305 305 306 307 307 307 308 308 308 308 308 309 309 311 312 313 314 316 318 321 322 323 324 324 323 323 324 325 326 327 326 327 327 328 328 328 329 327 328 327 328 329 328 326 325 325 325 323 324 325 326 329 329 329 329 328 327 327 327 328 329 329 329 329 328 327 326 326 327 327 326 325
288 285 286 281 276 273 267 271 268 275 276 280 285 283 282 289 292 305 306 308 307 308 308 306 305 305 305 305 305 305 305 305 306 305 305 305 306 307 308 309 310 311 312 314 316 319 322 322 323 322 322 322 322 324 325 326 325 325 325 326 326 325 325 326 326 327 328 326 325 325 325 325 324 324 325 326 328 328 328 328 327 327 327 328 328 328 328 328 327 327 327 326 326 327 326 326 325
285 284 286 283 283 279 276 275 277 275 277 275 282 281 288 291 303 306 309 308 307 306 305 305 303 304 304 302 302 302 303 303 303 303 303 304 305 305 306 307 308 310 310 311 313 315 317 319 320 321 322 322 322 323 323 323 323 324 324 326 326 326 326 325 323 324 326 326 325 325 325 325 324 325 325 326 326 327 327 327 327 327 327 327 328 328 328 327 327 326 327 326 326 327 326 325 325
286 285 282 284 286 284 275 275 278 274 277 277 281 291 295 299 303 305 306 305 304 304 302 302 301 301 302 300 301 301 301 301 301 301 302 302 303 303 304 305 306 307 308 309 311 312 314 315 316 317 319 322 322 321 322 322 322 323 324 324 325 325 325 325 325 325 325 325 324 324 325 324 324 325 326 327 326 325 326 326 326 326 327 327 327 327 327 327 326 326 326 326 325 326 326 325 325
286 282 285 288 289 287 283 276 270 267 271 276 285 286 289 288 286 303 303 302 301 301 300 300 300 299 298 298 299 299 299 299 300 300 301 301 302 302 303 304 305 306 307 307 309 311 312 313 313 314 316 317 320 320 319 320 321 322 322 323 323 325 327 326 325 325 324 324 324 324 323 323 323 325 326 326 326 325 326 328 326 325 326 326 327 326 327 327 326 325 325 326 327 326 325 324 324
291 288 291 287 280 280 280 277 270 270 269 275 284 287 289 290 290 297 299 300 299 298 299 298 297 297 297 297 297 298 298 298 298 298 299 299 300 301 301 302 304 305 307 307 308 309 309 310 311 312 312 315 317 319 321 322 321 322 323 323 323 324 325 325 325 325 324 324 324 324 323 323 324 325 325 325 325 325 325 327 326 326 326 326 326 326 326 326 326 325 325 325 325 325 325 323 323
290 291 288 288 283 279 279 277 277 276 268 275 281 286 283 293 295 300 300 301 299 297 296 295 295 296 296 296 296 296 296 296 297 297 298 298 299 300 301 302 302 302 304 305 306 307 307 308 308 309 310 312 313 314 317 320 323 323 322 323 323 324 324 325 325 324 323 323 324 325 324 323 323 325 324 325 325 325 325 326 326 326 326 326 326 327 327 326 325 325 325 325 325 325 324 323 322
283 283 282 285 283 285 284 281 280 276 269 271 279 277 284 292 299 298 298 299 297 296 294 295 295 295 296 296 295 295 296 296 296 297 297 298 298 299 300 301 301 302 303 304 304 305 306 306 306 307 307 308 309 311 314 316 319 323 323 323 324 323 323 324 324 325 324 324 324 324 324 324 324 324 324 324 325 325 325 326 326 326 326 326 326 325 325 325 325 324 325 325 325 326 325 323 323
285 285 282 284 283 282 279 276 281 278 276 273 277 275 285 295 299 297 296 297 296 296 295 294 294 294 295 295 295 295 295 296 296 296 297 297 297 298 299 299 300 300 301 301 303 303 304 304 305 306 306 306 307 309 311 313 316 320 323 324 324 324 323 323 323 324 324 324 324 324 324 324 324 324 324 324 325 325 325 325 326 325 325 325 325 325 325 325 324 324 323 325 325 324 325 323 323
Wind_Speed
0 1 1 0 1 1 0 5 1 3 2 5 2 1 4 3 2 5 5 2 0 1 2 1 1 3 1 2 5 5 2 4 4 8 4 1 1 6 7 12 11 12 12 10 10 10 11 14 17 18 19 21 20 20 19 18 19 18 18 17 18 18 18 18 18 18 19 19 19 20 20 21 20 20 19 19 19 18 18 17 17 17 17 17 18 18 17 17 17 18 19 20 20 19 19 19 19
1 2 2 0 1 1 1 1 3 2 4 1 7 2 5 1 1 5 5 1 1 1 1 4 6 6 9 9 8 5 2 2 1 1 1 1 8 5 7 12 12 12 11 10 9 10 9 12 17 17 20 21 21 20 19 19 18 19 19 18 18 18 18 18 18 18 18 18 19 19 20 20 21 19 19 18 17 17 15 17 17 18 17 16 18 18 17 16 17 18 19 19 19 18 17 15 15
1 1 3 2 2 3 1 3 2 0 2 4 7 8 2 2 5 6 6 3 3 3 1 2 3 3 2 3 4 3 1 1 3 2 2 2 9 3 7 10 10 11 12 9 10 10 9 11 16 17 20 20 20 20 20 19 18 18 18 18 18 19 18 18 17 17 17 17 19 19 20 20 19 20 20 18 17 16 15 15 18 18 17 16 15 16 16 16 17 17 18 18 17 17 16 15 14
2 2 3 2 0 3 1 3 3 7 2 6 4 6 4 4 5 3 5 5 6 1 1 2 2 3 2 4 1 2 2 1 0 3 4 4 0 6 8 10 11 10 9 8 9 9 9 13 16 17 20 20 20 20 19 18 18 18 18 17 18 17 16 17 17 16 16 17 18 19 20 20 20 20 19 19 17 16 14 14 16 18 17 16 16 15 15 15 16 16 17 17 16 15 15 15 14
0 1 1 3 3 0 2 1 3 3 4 5 3 4 4 4 5 2 3 5 6 4 1 1 2 3 1 4 1 1 1 0 2 2 2 2 4 7 9 9 9 11 10 10 10 9 10 17 16 17 18 20 20 19 19 19 18 18 18 17 17 17 17 16 16 16 16 17 17 18 19 19 19 19 19 19 18 17 16 15 13 15 15 14 14 14 13 13 14 15 15 16 15 15 15 15 15
3 1 2 2 1 2 4 1 1 4 8 4 1 4 3 4 2 1 5 6 7 2 3 0 2 4 2 1 2 3 0 1 1 1 3 2 9 9 9 9 10 9 9 9 9 8 10 16 15 16 17 19 19 19 19 18 17 17 17 17 17 17 16 15 15 16 16 16 16 17 18 18 19 19 18 18 17 17 17 16 16 15 15 15 15 14 14 14 14 14 14 14 15 15 15 15 16
1 3 3 3 1 4 4 2 3 5 9 7 4 5 4 1 2 3 6 8 0 3 1 1 2 3 4 1 2 2 2 1 2 1 4 7 10 10 10 9 10 10 9 8 8 9 12 15 15 15 17 18 20 18 19 19 18 17 18 17 16 16 15 15 15 16 15 15 16 16 16 17 18 18 18 18 17 16 16 16 17 16 15 14 14 14 13 13 13 13 13 14 15 15 15 15 15
1 2 1 2 1 1 0 2 5 5 5 8 2 5 8 5 2 4 4 2 5 2 3 1 1 4 0 4 1 4 8 6 4 9 11 9 10 10 9 10 10 10 9 8 7 8 14 14 15 15 16 17 18 18 18 18 18 17 17 16 16 15 15 15 15 15 14 15 16 16 15 16 17 17 18 17 15 14 14 15 16 15 14 14 13 13 13 13 13 13 14 14 15 15 15 15 15
2 4 0 4 1 2 1 4 5 3 7 4 9 8 12 8 4 3 4 2 3 1 1 0 3 1 1 5 3 4 3 5 7 11 11 11 10 9 7 8 10 10 9 8 7 8 9 13 14 14 15 16 17 17 17 18 17 17 17 16 15 13 14 14 15 15 13 13 14 15 15 15 16 16 16 15 14 13 13 14 14 14 13 12 13 13 13 13 13 13 14 14 14 14 14 15 15
2 2 1 2 4 3 2 6 0 5 3 4 4 10 7 4 2 3 4 4 5 2 1 2 2 3 3 5 2 4 1 2 6 10 10 8 8 8 8 7 8 11 10 8 8 8 7 15 13 13 13 14 16 15 15 15 15 15 16 15 14 13 13 13 13 13 13 13 13 14 14 14 14 15 15 14 14 14 13 13 12 12 12 12 12 13 13 14 13 13 13 13 14 13 14 14 14
1 4 2 2 1 1 3 6 5 7 5 4 8 10 12 6 4 3 3 1 0 4 1 1 5 3 3 3 2 0 2 1 5 10 8 8 8 9 9 8 8 7 10 10 8 8 8 8 15 13 13 13 14 14 13 13 14 14 14 13 13 14 14 13 14 16 13 13 14 13 14 14 14 15 14 14 15 14 13 11 10 10 10 11 12 13 14 13 13 13 13 12 12 12 13 13 14
1 1 1 2 2 5 4 3 5 8 8 4 5 5 1 4 4 2 3 4 2 2 3 3 3 4 5 2 1 1 2 2 1 6 8 8 8 9 9 8 8 8 9 9 9 8 8 8 9 14 15 13 13 14 13 13 13 13 13 13 13 13 14 13 13 13 13 13 12 12 14 14 15 14 13 14 14 14 12 10 9 8 9 11 12 13 13 12 13 12 12 11 11 11 12 14 14
3 2 5 3 3 1 1 1 6 3 5 6 4 1 0 5 4 4 4 3 3 4 1 3 6 5 3 1 1 2 4 2 3 5 7 8 8 8 8 8 9 10 9 8 9 8 8 6 8 8 11 16 13 12 13 13 12 12 12 12 12 13 13 13 13 12 12 12 12 13 13 13 13 13 13 14 14 13 11 9 8 8 8 10 12 13 12 12 12 12 11 11 11 11 12 13 14
2 5 6 3 1 2 3 3 1 2 5 5 2 4 4 1 1 5 7 5 1 3 2 4 4 5 4 1 2 3 4 5 5 6 7 9 8 9 10 9 9 9 9 8 8 8 7 6 6 6 8 8 7 11 13 14 13 12 11 11 12 12 12 12 11 11 10 11 13 13 13 12 12 12 14 14 14 13 10 9 7 7 8 10 12 12 12 12 12 11 11 12 12 12 14 14 14
1 2 2 2 0 0 3 2 2 3 6 1 3 2 5 2 2 4 5 5 1 1 3 3 3 1 3 6 6 7 8 8 7 8 10 10 12 10 10 8 8 8 8 9 8 8 8 6 5 5 5 6 7 6 6 11 15 12 11 12 12 12 12 11 11 10 11 11 14 14 14 14 13 14 14 14 14 12 10 8 8 7 8 10 11 12 12 12 12 12 12 13 13 13 15 14 14
3 4 2 1 2 2 4 2 1 1 8 1 3 3 0 2 0 1 1 1 3 1 2 1 3 1 3 6 3 9 12 10 8 10 11 13 11 10 10 10 9 7 7 8 7 7 8 8 6 6 5 6 5 5 5 6 12 14 13 13 14 14 14 12 10 10 12 13 16 15 15 11 11 10 15 12 14 13 10 7 8 7 8 10 11 11 12 12 12 12 13 14 13 13 14 14 13
2 3 0 2 4 3 3 3 3 2 6 4 4 8 2 0 2 1 1 2 9 1 4 2 1 0 6 5 3 14 13 11 11 12 13 10 9 8 7 7 6 6 5 8 7 7 8 8 8 7 6 6 6 6 5 6 9 13 11 14 14 14 12 12 10 11 11 11 11 11 11 6 5 6 7 6 12 7 8 8 8 8 8 9 10 11 11 12 12 12 14 14 12 13 13 14 13
1 2 5 1 4 2 4 5 6 1 1 5 9 4 4 0 2 1 3 8 5 5 7 3 4 4 1 1 9 12 13 13 11 14 14 12 8 9 8 8 6 6 6 7 7 7 8 7 8 8 6 6 5 5 4 4 6 8 5 6 6 9 10 10 8 5 7 4 9 7 5 5 5 5 5 7 4 7 6 8 8 7 8 9 9 10 11 11 12 13 15 13 11 10 13 7 8
2 2 3 7 4 7 5 3 5 1 4 4 6 5 0 1 3 0 4 0 2 4 4 4 6 6 7 9 10 13 12 11 11 12 15 15 13 11 9 9 7 8 7 7 7 7 6 6 7 7 7 6 6 6 4 4 5 5 4 5 6 7 6 6 3 4 3 4 5 4 4 4 5 4 5 6 5 8 7 8 7 7 7 8 9 10 10 10 10 14 14 12 10 10 6 6 6
3 5 3 7 6 5 5 4 5 3 3 8 8 3 3 4 1 1 3 4 2 3 3 3 3 4 6 8 10 10 11 10 9 13 14 12 11 11 9 9 12 10 8 6 7 6 6 6 7 7 8 8 6 5 5 5 5 5 5 4 5 5 5 5 4 4 5 5 5 4 4 4 4 5 9 13 9 5 6 7 7 6 6 7 8 6 9 9 12 13 12 12 8 5 5 5 5
2 2 4 4 3 1 4 4 9 9 4 4 4 3 2 4 1 2 5 4 1 2 5 7 8 8 10 9 10 11 11 11 11 11 11 12 8 7 5 2 5 8 8 8 7 6 6 8 8 9 10 9 8 7 7 6 6 5 5 5 5 4 4 5 5 5 5 5 4 4 4 4 4 4 4 4 5 4 4 3 3 3 3 4 5 4 4 5 5 6 6 7 5 6 6 6 6
3 6 3 4 1 2 6 5 6 4 2 2 5 5 1 1 2 4 5 5 1 3 4 7 9 11 13 14 11 10 11 12 12 12 12 12 13 9 7 10 3 1 5 7 8 7 7 8 9 9 9 8 8 7 6 8 8 6 5 5 5 4 5 4 4 5 5 5 5 5 5 5 5 4 4 4 4 4 4 4 3 2 3 4 3 3 4 4 5 5 5 6 5 5 6 5 5
5 2 3 5 5 6 2 2 5 0 2 3 1 2 5 1 1 1 3 3 2 4 3 9 10 12 11 11 12 12 11 12 12 12 13 13 12 10 12 6 5 5 4 4 6 7 8 6 9 8 8 8 7 7 5 6 5 5 4 5 5 5 5 5 4 4 4 5 5 5 6 5 4 4 4 5 4 4 4 3 4 3 3 3 3 4 4 4 5 5 5 5 5 6 6 5 5
2 3 0 4 4 8 6 8 9 5 4 7 1 5 4 4 1 1 1 3 3 4 3 5 7 7 10 11 9 12 12 11 10 10 11 13 15 15 13 10 4 4 6 6 5 6 7 9 9 10 9 10 10 9 9 8 7 8 7 7 6 7 6 5 5 4 4 5 5 5 5 5 5 5 5 4 4 4 4 4 3 3 2 2 2 3 4 4 5 5 5 5 6 6 6 5 5
3 3 3 4 3 6 6 6 8 6 8 6 5 5 11 0 1 0 1 1 2 3 6 8 8 9 10 10 10 9 9 8 9 9 8 8 11 11 7 5 6 6 7 8 5 7 8 6 7 8 7 7 6 8 8 7 8 7 7 6 6 9 6 6 6 5 4 4 5 6 5 6 5 5 6 5 4 4 4 3 4 4 3 3 2 3 2 3 5 6 5 5 5 6 6 6 5
5 6 2 3 5 5 5 5 7 7 5 2 4 7 7 2 5 3 2 3 1 4 8 8 8 10 10 10 10 10 10 10 9 10 10 9 11 11 8 7 6 8 7 8 7 5 7 8 8 5 4 3 3 4 5 7 8 8 8 8 7 8 7 7 7 5 4 5 5 6 6 6 5 5 6 5 5 4 4 4 4 3 3 2 1 3 2 3 4 6 6 5 5 5 6 5 5
3 5 5 5 8 4 4 3 6 2 4 1 3 5 2 5 2 5 2 1 4 6 7 5 10 10 9 9 8 7 10 11 11 8 8 9 10 11 10 6 7 5 6 7 7 6 7 9 8 6 5 5 3 3 5 6 7 7 8 7 6 7 8 8 6 6 6 6 6 6 6 5 6 5 5 6 4 5 4 4 4 3 3 3 2 0 4 3 3 4 6 6 5 5 5 4 5
3 3 0 4 6 4 6 4 11 1 4 6 6 5 1 2 2 4 0 1 2 10 6 5 5 9 9 9 8 6 7 6 7 9 12 12 10 9 9 8 6 5 7 7 6 4 3 3 6 6 7 7 6 6 7 8 7 6 7 6 5 7 8 8 7 7 6 5 5 5 5 5 5 5 6 5 5 4 4 4 4 5 4 3 3 1 4 3 3 4 5 5 5 5 5 5 4
1 2 3 6 6 4 2 6 4 5 4 4 5 1 3 2 4 1 3 1 1 7 7 6 6 6 7 8 7 7 8 9 8 9 9 7 6 6 7 1 2 7 3 5 4 4 4 4 7 9 9 8 8 7 6 6 5 6 6 6 6 8 8 8 7 7 6 5 5 5 5 5 5 6 6 6 6 5 5 4 4 4 4 4 3 4 4 3 3 4 5 5 5 5 6 5 5
1 2 1 4 4 3 3 1 2 3 2 6 5 2 6 8 5 5 2 5 4 6 6 6 5 6 6 7 7 7 6 7 8 7 4 4 5 6 9 10 8 7 7 5 6 5 4 6 9 9 8 7 8 8 8 7 6 6 6 7 7 8 7 7 7 6 5 4 4 4 4 5 5 5 6 6 5 5 5 5 5 5 4 4 4 5 4 3 3 4 4 5 5 5 6 5 5
3 1 3 1 0 3 3 0 0 4 2 4 1 2 8 8 1 3 4 5 9 7 7 7 7 6 6 7 7 8 8 7 5 4 4 4 6 6 8 9 8 7 6 7 8 8 8 8 5 4 8 10 12 13 14 12 9 7 7 6 7 7 7 6 6 6 5 5 4 3 4 4 4 5 5 6 5 5 5 5 5 5 4 4 4 4 5 4 4 4 5 6 6 6 5 5 5
2 2 3 3 3 4 7 3 2 5 1 2 2 0 7 8 6 7 2 4 5 7 7 8 7 7 7 7 8 8 7 5 6 5 4 4 5 6 8 9 7 7 9 9 11 9 8 7 7 9 11 12 11 9 8 11 12 11 10 8 6 5 5 5 5 6 5 4 4 3 3 3 4 5 5 5 5 5 5 5 5 4 5 5 5 5 5 5 5 5 4 6 8 6 6 5 5
5 4 3 1 1 5 3 1 2 4 0 1 3 3 2 3 4 4 1 5 4 6 7 6 6 7 7 7 8 7 3 5 5 6 4 4 3 4 6 7 8 9 9 10 12 11 8 11 13 13 12 11 8 7 6 4 3 6 10 10 9 6 5 5 6 5 5 5 4 4 4 4 4 5 5 5 6 5 5 5 4 5 5 5 5 5 5 5 6 5 4 3 6 6 6 8 6
2 2 2 2 1 1 1 6 0 4 2 1 3 1 3 2 1 5 3 0 4 5 7 2 4 5 5 6 6 5 3 4 6 5 6 5 4 4 4 6 6 6 7 8 10 12 13 13 12 10 9 8 8 8 8 8 6 1 1 5 8 7 6 5 5 6 6 5 5 4 3 5 4 5 5 6 6 6 6 6 5 5 5 5 5 5 5 5 6 7 6 4 5 6 6 7 7
3 1 2 0 0 0 1 1 1 3 4 0 1 1 7 6 3 6 6 7 3 4 5 3 2 3 4 4 4 2 3 3 3 4 6 6 6 5 5 5 5 6 7 9 9 9 10 10 8 8 9 8 7 4 3 2 3 3 1 2 5 6 5 6 7 7 7 6 7 6 3 5 5 5 5 6 6 5 5 5 5 5 5 5 6 5 5 6 6 5 7 6 5 4 7 7 7
5 6 4 3 2 1 0 3 3 0 1 1 2 5 6 4 7 6 9 7 5 4 3 1 2 4 4 4 2 3 3 3 1 5 7 7 7 7 6 6 5 6 6 7 9 11 11 9 7 7 8 8 5 4 5 5 4 6 7 5 5 7 6 7 7 8 7 6 7 7 8 6 6 6 6 6 6 5 5 5 6 5 5 6 7 7 6 6 8 7 6 9 8 6 5 6 8
4 4 6 2 0 3 4 4 5 1 0 4 4 3 3 7 7 9 6 7 14 14 11 6 2 1 2 3 3 3 4 3 2 4 6 7 7 6 6 6 6 6 6 8 10 12 11 10 9 11 9 7 7 7 6 6 6 5 5 7 7 6 7 6 8 7 6 7 8 8 9 9 9 7 7 6 6 5 5 6 6 5 5 6 6 7 7 7 7 7 7 6 10 7 5 6 7
4 4 2 1 1 1 2 1 2 4 1 2 2 1 8 7 9 8 8 14 14 11 11 10 9 2 3 4 3 3 3 1 3 4 4 6 6 7 6 7 8 9 9 10 13 12 10 10 11 10 5 7 8 9 7 7 6 5 4 5 4 5 7 8 7 7 8 7 7 7 9 9 9 9 8 7 6 6 6 6 6 6 6 5 5 5 6 6 7 7 8 5 4 7 6 8 8
3 3 2 1 2 4 7 2 2 2 2 6 2 6 8 7 7 10 13 7 6 7 10 9 6 6 2 4 3 3 3 3 3 3 5 6 8 8 7 7 8 9 11 13 11 9 10 11 11 8 6 7 7 7 7 7 5 3 1 1 2 1 4 7 6 6 7 8 8 9 9 8 8 8 8 8 7 7 7 7 6 6 6 6 6 6 6 7 6 8 9 8 7 4 5 7 9
5 4 3 4 2 1 1 2 2 4 2 2 3 13 3 6 5 12 11 10 7 9 8 8 11 10 8 1 4 6 4 3 3 3 4 6 6 7 6 6 7 8 10 11 10 11 10 10 9 8 6 4 4 5 4 3 2 1 0 1 0 1 4 6 6 5 6 8 10 9 8 7 8 7 7 8 7 7 7 7 6 6 6 6 7 7 7 7 7 6 6 8 9 8 4 6 7
1 4 3 2 1 2 5 2 4 1 1 2 7 8 3 9 10 11 12 9 13 11 8 11 13 11 7 8 8 5 3 4 4 3 4 5 5 4 3 1 3 7 8 9 9 9 7 8 5 4 3 2 2 2 2 1 1 1 1 1 3 2 3 5 6 6 8 9 8 8 7 7 7 7 7 8 7 8 7 7 7 7 7 7 6 6 7 8 8 7 8 9 9 8 8 5 5
1 4 6 6 3 4 2 3 4 4 2 4 2 3 3 3 7 8 7 9 13 11 12 16 14 12 11 12 10 6 4 3 2 4 4 4 3 1 1 1 2 7 9 10 10 9 9 9 8 7 6 7 7 6 4 3 2 2 3 5 6 6 5 6 9 8 7 8 7 5 6 6 6 6 6 7 7 6 7 7 7 8 7 6 6 6 6 6 7 7 8 9 8 7 9 8 6
3 5 8 6 5 4 1 1 2 1 2 0 1 4 4 1 8 7 6 9 10 7 14 15 14 12 11 10 10 8 5 3 2 1 1 1 2 3 5 8 8 7 9 11 12 11 13 12 11 10 7 6 6 6 6 4 5 4 3 4 3 4 4 1 2 0 3 3 4 6 6 6 7 8 7 7 7 6 6 6 7 7 7 7 6 6 7 8 7 8 7 7 8 7 7 9 9
3 2 10 7 5 4 4 3 5 2 2 2 4 3 6 1 4 3 5 6 9 12 13 14 12 11 11 9 9 8 6 5 4 6 7 8 9 10 10 9 8 6 5 7 5 6 9 9 7 6 5 4 3 4 4 3 3 4 5 4 2 1 0 1 3 2 3 4 5 6 6 6 7 7 7 7 8 7 6 6 6 6 7 7 7 7 8 7 7 6 8 7 7 8 9 9 10
4 2 10 9 9 7 5 5 3 0 1 5 6 4 5 1 3 2 3 8 11 13 12 11 11 11 10 10 9 9 9 9 9 9 11 11 10 8 7 7 5 6 5 2 1 2 7 8 4 1 1 1 1 1 2 1 1 1 4 4 4 1 2 3 4 4 4 4 5 5 6 7 7 7 6 7 7 7 7 7 7 7 6 7 7 6 6 7 9 9 8 8 8 8 7 7 8
6 6 4 4 6 5 6 4 5 0 2 4 3 2 3 1 4 6 1 5 9 8 9 8 9 9 10 9 10 10 9 8 9 10 9 9 7 6 4 3 6 6 3 3 3 2 5 7 5 3 3 2 3 1 1 1 2 1 2 3 2 1 3 4 4 4 5 5 6 6 6 6 5 5 5 5 4 5 6 6 7 7 7 7 6 7 7 7 7 8 10 10 10 10 7 8 9
4 7 7 4 6 4 3 5 3 5 1 5 3 2 3 1 3 3 4 3 3 5 4 6 7 9 10 9 11 10 10 10 9 10 11 10 10 12 11 11 8 8 5 5 5 4 4 6 6 3 1 3 2 1 2 2 1 2 4 4 4 4 3 4 5 5 4 5 5 5 5 3 3 4 3 5 4 4 5 6 7 7 7 7 7 7 8 8 8 8 7 5 4 9 8 7 6
6 3 4 6 3 4 4 3 5 4 2 4 2 2 2 3 1 2 5 7 5 4 5 5 8 11 10 9 10 11 11 10 11 13 13 14 15 14 14 13 11 10 10 9 5 4 3 4 4 3 0 2 3 4 3 2 3 4 3 4 4 5 5 4 6 6 6 6 5 5 4 5 5 5 5 6 7 7 7 6 6 7 6 6 7 6 6 7 7 7 7 10 9 8 7 7 7
4 5 8 9 2 2 0 1 1 2 5 1 1 3 4 4 1 4 6 4 3 5 5 8 10 10 10 10 9 8 9 10 10 9 9 11 11 12 13 13 13 12 11 11 9 8 7 4 0 2 3 2 1 1 2 3 3 4 4 5 5 3 3 4 4 5 5 5 4 3 2 4 4 6 7 7 7 8 5 5 6 7 6 6 7 6 6 7 7 7 8 10 9 9 8 9 8
5 6 7 7 3 3 4 1 0 2 3 1 3 2 4 2 3 4 3 3 6 8 9 9 9 10 9 9 8 10 10 10 10 10 10 10 9 10 11 11 12 12 13 12 12 11 9 7 6 3 1 1 1 3 3 2 2 4 4 4 3 1 3 4 4 5 6 6 5 4 2 2 5 7 7 9 7 7 8 8 4 1 4 2 3 3 3 4 6 6 6 7 9 9 7 9 9
9 4 9 7 7 5 3 3 4 6 4 2 4 3 2 6 3 7 2 7 8 8 8 8 9 8 7 8 10 12 12 11 10 10 11 11 11 12 11 12 11 11 13 12 12 11 9 8 7 7 5 2 3 4 3 2 3 4 4 1 1 1 2 5 6 6 6 8 9 10 9 7 5 7 6 4 6 8 7 5 6 7 8 7 7 7 7 8 7 8 8 8 8 7 8 8 8
0 3 6 6 6 6 3 6 5 4 4 2 5 1 1 1 1 3 3 7 7 6 9 8 9 8 8 9 11 11 12 12 11 11 11 12 11 12 12 11 11 11 11 11 13 11 11 10 11 11 8 7 4 3 2 3 4 2 3 3 2 3 5 3 4 7 7 7 6 7 8 8 6 6 8 5 6 4 4 5 7 8 7 7 7 6 6 7 9 8 7 6 7 6 8 9 7
4 5 5 5 2 11 6 2 2 6 7 1 1 2 1 1 1 3 7 8 7 9 10 10 9 9 9 9 9 10 11 11 12 12 11 12 12 12 11 11 11 11 11 12 11 10 11 11 11 11 10 6 4 4 5 2 4 2 2 5 6 6 7 10 10 9 5 5 5 6 8 9 9 8 9 7 6 5 5 6 7 6 7 7 7 7 8 6 3 4 6 7 8 6 7 9 7
7 4 6 2 3 5 7 5 2 3 5 1 1 1 3 1 3 3 6 7 8 9 8 7 8 10 10 10 11 11 11 10 9 9 9 10 10 12 11 10 11 11 11 11 12 10 9 9 10 11 11 11 9 7 5 3 4 7 4 5 6 4 4 6 7 7 6 7 6 6 6 6 9 9 9 7 6 6 7 8 6 6 7 8 8 7 7 7 7 7 7 8 8 8 8 6 7
9 8 7 7 1 2 3 6 1 2 1 1 1 3 1 1 1 2 6 7 7 8 7 7 9 9 9 9 10 10 10 10 11 12 11 11 11 11 11 11 10 10 9 9 10 10 10 10 10 9 10 11 12 10 8 3 5 7 5 2 6 5 3 6 8 8 6 6 5 5 7 5 5 7 8 8 7 6 7 7 7 8 7 8 8 7 7 7 7 7 7 7 7 7 7 7 6
5 7 4 1 6 4 4 4 5 8 3 3 1 1 3 3 0 4 6 8 8 8 7 6 6 7 7 7 8 9 9 9 9 10 10 10 10 11 11 11 13 13 11 11 11 10 12 12 12 12 12 11 12 13 12 12 9 5 7 5 5 3 3 7 8 7 5 5 6 5 7 6 7 6 7 7 7 7 7 8 8 7 7 6 7 7 7 7 7 7 6 7 7 7 7 7 6
3 4 1 1 3 2 6 2 2 4 7 5 5 2 4 1 2 3 5 7 9 7 7 4 5 6 7 7 7 7 8 8 9 9 10 10 11 11 11 11 10 10 9 10 10 12 12 12 13 13 14 13 12 10 10 10 10 8 8 8 6 5 6 7 8 6 7 7 4 4 7 9 5 7 7 7 8 8 8 8 7 6 6 6 7 7 6 6 6 7 8 9 8 9 8 6 7
7 9 7 8 9 5 5 2 2 4 7 6 6 4 2 2 4 4 5 7 8 6 7 6 5 5 6 6 8 8 7 8 9 10 10 10 12 12 12 11 10 11 11 13 12 11 13 13 12 12 12 11 12 11 10 10 9 9 8 7 7 7 7 8 11 8 6 6 4 3 6 6 7 6 7 8 8 8 8 8 8 8 7 6 4 6 6 7 7 7 4 6 5 6 7 7 7
Wind_Direction
349 26 29 108 68 137 62 3 174 303 76 253 318 177 263 225 270 333 272 347 272 277 237 347 258 357 194 197 162 147 200 127 200 130 213 237 224 119 113 120 125 126 129 129 129 127 130 130 129 129 128 125 123 122 123 123 123 122 120 120 119 118 119 120 122 123 123 122 122 121 122 122 121 120 119 117 117 115 115 118 119 118 114 113 108 104 99 93 92 92 91 94 95 91 91 92 93
53 31 59 4 261 40 216 122 97 339 34 358 243 123 248 244 110 214 243 174 231 114 350 121 101 94 69 98 132 159 55 42 6 127 49 55 89 78 123 125 131 128 127 129 126 126 130 132 130 131 130 127 125 125 125 126 123 123 123 120 120 120 121 121 124 124 125 125 125 126 125 122 121 120 119 118 118 121 120 116 116 117 116 115 111 106 101 96 94 94 93 93 90 87 88 86 80
48 80 51 34 22 77 91 39 263 81 171 241 271 206 314 265 205 241 237 236 250 206 274 24 71 46 21 16 32 33 240 48 87 66 58 110 118 137 128 125 126 127 128 129 127 130 134 133 133 133 131 128 128 127 126 125 126 125 121 122 121 123 122 123 125 126 127 127 126 125 123 123 122 121 122 123 122 120 116 116 119 120 116 115 113 108 98 100 99 97 94 92 91 88 81 76 77
77 60 161 75 224 27 69 30 84 136 160 216 303 261 208 198 248 232 254 266 256 303 310 308 49 286 87 55 130 72 23 333 127 120 119 169 26 129 129 125 125 124 124 129 131 135 135 133 135 134 131 130 129 128 127 126 126 126 124 123 124 123 122 124 125 126 128 128 126 125 125 124 123 123 121 118 115 114 110 115 122 122 121 118 113 106 109 103 98 92 93 92 88 82 79 78 80
74 319 106 98 111 313 113 181 148 108 222 192 194 271 231 220 241 248 278 280 282 218 260 332 69 345 137 128 106 102 245 340 50 152 75 33 103 120 123 124 126 128 129 130 132 134 135 135 135 134 133 131 129 129 128 128 125 128 125 125 125 123 125 125 127 128 128 128 126 125 125 125 125 122 121 121 122 120 117 113 106 107 101 101 102 102 104 103 100 100 97 94 88 82 79 80 86
63 50 348 103 280 178 56 74 241 207 230 147 235 253 228 230 214 247 291 289 253 260 206 92 187 187 24 347 166 94 233 58 186 167 121 128 122 127 126 126 128 126 128 127 131 133 137 136 134 134 134 132 132 130 129 125 128 127 128 127 124 125 125 126 127 129 129 129 127 126 125 123 122 120 119 119 115 114 114 114 113 110 110 112 116 114 112 109 106 103 99 92 88 83 82 86 91
199 49 354 28 16 56 181 158 218 212 261 162 226 265 253 199 227 331 334 350 219 136 198 139 170 103 79 311 63 82 338 201 136 192 111 138 124 129 133 131 127 127 125 125 128 130 135 132 133 136 135 135 134 131 128 130 129 130 127 127 128 128 128 129 129 129 129 130 127 127 126 125 122 121 121 116 113 115 118 117 116 113 112 114 114 113 113 110 107 98 92 90 87 86 88 93 97
98 116 276 103 233 45 203 214 253 163 273 181 240 279 294 283 337 346 320 27 304 48 337 127 355 97 255 16 131 322 16 10 92 102 115 127 129 132 133 135 128 124 122 120 123 129 134 132 135 136 136 136 133 130 130 131 131 130 131 130 131 133 134 131 130 131 131 132 131 129 130 125 121 121 118 118 116 118 120 118 117 114 115 114 115 114 113 110 103 95 92 90 89 89 95 100 103
356 89 311 81 179 42 46 234 254 225 277 279 272 242 270 277 287 272 289 228 315 202 133 185 319 69 215 38 48 306 14 21 87 109 121 132 133 131 127 127 125 120 117 117 119 125 126 135 134 134 135 135 131 131 133 132 132 134 133 134 134 135 136 134 133 132 133 136 135 132 132 129 125 122 119 120 121 123 122 120 116 114 115 116 115 115 111 107 101 98 96 94 92 94 101 105 107
44 89 254 156 120 221 2 293 166 241 230 244 266 282 276 259 251 171 258 314 223 119 169 67 65 106 108 74 343 353 13 27 105 105 126 121 114 109 109 107 113 123 121 119 123 122 129 137 129 130 131 132 131 134 136 134 134 138 136 137 137 137 139 135 133 134 136 137 136 133 133 130 123 123 126 128 128 123 121 116 115 115 114 114 112 111 109 105 103 99 97 96 96 101 110 111 113
167 13 134 100 49 197 208 267 268 299 263 304 288 255 255 273 218 243 198 195 246 153 236 33 38 100 81 57 47 347 95 81 122 128 120 109 105 110 108 104 110 114 123 127 124 125 132 133 131 126 130 131 133 135 135 134 136 135 134 136 139 140 140 137 138 140 138 137 135 130 127 126 126 129 133 132 128 124 119 116 116 117 115 112 111 109 108 106 104 100 99 101 103 109 120 120 117
66 115 41 111 193 167 235 212 275 275 293 307 279 283 252 190 144 166 182 141 193 109 173 143 192 143 63 54 66 29 81 72 82 114 111 106 110 105 110 109 108 106 115 121 123 126 127 136 133 137 136 134 135 136 136 135 133 131 134 139 140 139 140 141 141 139 140 138 132 127 128 133 135 136 134 131 125 119 120 123 124 123 119 113 111 110 109 108 104 103 103 104 107 118 130 127 122
120 110 88 99 224 146 218 273 257 285 320 290 227 292 317 131 185 190 138 107 116 114 322 215 126 78 75 190 268 162 124 140 130 109 104 101 103 104 103 101 104 111 120 122 125 124 125 125 133 136 140 138 134 135 134 133 130 132 137 140 139 137 139 141 138 138 137 135 131 130 131 135 138 138 134 131 121 122 125 128 129 127 120 116 114 112 112 109 107 106 104 104 105 116 128 126 123
118 180 131 219 77 184 154 237 281 339 294 254 278 285 296 332 314 151 118 85 103 137 295 136 108 121 74 117 225 189 165 150 127 105 96 97 100 104 104 103 109 117 119 124 126 123 116 118 123 130 139 134 138 136 136 134 134 137 138 137 137 137 137 137 136 135 135 137 136 133 134 136 135 133 135 128 124 123 125 129 129 129 124 118 116 115 115 111 110 107 105 102 102 107 119 125 121
193 153 83 114 170 50 245 173 220 160 261 305 271 349 345 357 95 84 134 118 40 237 142 73 170 61 216 165 259 198 148 153 119 104 100 101 107 104 107 106 109 110 118 124 118 120 119 118 108 109 123 133 134 131 140 144 139 138 139 138 135 137 133 137 140 140 142 144 142 140 140 141 140 137 137 132 126 126 130 132 133 130 126 123 120 119 117 115 111 109 105 99 97 102 118 123 121
154 85 87 146 242 179 269 193 221 120 266 229 274 317 28 348 11 69 276 166 152 118 66 160 16 126 175 190 234 133 137 133 121 108 106 107 106 103 109 114 114 114 127 125 123 126 131 129 121 121 124 129 129 128 133 139 143 146 143 138 142 143 146 140 144 148 151 152 148 144 142 143 143 142 141 134 131 130 131 137 134 129 131 127 124 121 118 116 114 111 102 96 99 104 109 113 116
83 79 34 45 255 152 257 176 146 218 253 274 296 36 7 316 310 94 304 49 108 59 82 29 342 354 179 213 107 124 128 124 114 108 110 112 111 110 105 105 116 126 135 136 133 138 137 136 130 134 139 134 126 119 117 130 147 146 145 145 145 147 143 144 149 154 154 155 151 145 136 123 120 127 132 132 131 128 134 139 134 134 130 132 125 122 117 114 116 110 100 100 106 111 112 111 114
81 150 115 202 206 165 213 198 190 214 271 305 338 4 25 331 23 89 42 38 77 54 45 337 18 26 323 8 109 117 124 120 118 117 117 117 118 120 122 130 136 146 149 149 147 144 140 139 141 140 133 125 114 105 105 120 137 137 137 141 141 144 149 150 153 159 153 139 143 135 125 127 115 123 132 133 122 131 134 141 136 130 137 133 127 121 116 115 117 108 103 103 107 116 119 114 116
138 114 119 216 198 238 164 207 231 304 275 280 294 322 127 242 145 235 87 299 46 47 24 35 46 33 57 78 102 114 118 115 117 120 127 119 122 125 145 149 147 153 167 154 147 141 134 138 141 133 118 111 105 109 118 101 106 108 118 135 136 142 142 135 124 137 107 122 111 125 123 116 123 124 125 137 133 136 140 141 136 136 132 135 132 121 116 116 115 104 100 101 101 103 102 108 103
223 118 206 240 213 251 221 217 253 200 261 303 314 305 33 281 184 242 137 151 69 134 136 25 68 131 125 117 106 110 114 120 119 128 131 128 122 134 146 154 158 170 157 151 142 134 135 134 126 122 122 124 123 129 132 124 121 119 127 133 122 130 129 118 110 117 122 122 131 126 126 129 126 140 155 147 139 132 140 138 139 138 135 133 128 112 120 120 107 96 95 95 96 99 113 112 104
256 135 189 232 227 225 264 199 237 254 241 265 263 306 31 273 260 94 143 88 327 277 220 163 189 171 159 130 115 117 126 132 133 132 132 126 110 102 87 20 238 165 155 144 136 138 132 132 130 136 137 139 143 144 141 134 129 128 126 130 129 128 116 111 116 116 134 134 124 122 127 126 125 124 116 114 108 117 106 107 84 64 58 58 81 88 81 89 85 94 86 82 93 115 120 120 114
108 210 190 209 172 219 254 237 237 232 210 259 303 330 265 254 34 94 123 126 232 214 215 197 175 161 157 148 131 127 140 144 143 140 142 132 131 132 157 198 180 92 136 144 149 140 140 141 144 145 140 147 155 152 142 139 140 142 142 145 135 118 110 112 118 126 134 128 128 137 134 131 131 125 111 113 111 122 121 112 110 87 74 80 70 87 92 98 96 96 92 94 96 106 120 122 117
230 312 237 231 235 257 260 304 258 31 309 242 351 269 334 56 122 250 129 161 229 222 202 174 167 172 158 129 134 138 149 153 151 149 146 138 133 145 179 189 170 136 142 155 149 144 138 145 140 145 151 147 143 122 120 126 135 139 138 138 134 135 133 127 133 141 145 144 140 144 139 140 139 136 133 130 131 131 135 143 140 124 111 105 98 100 93 90 102 103 97 99 106 112 108 102 111
187 249 310 295 221 243 270 281 290 316 329 282 174 313 320 288 49 188 171 248 225 278 243 144 146 133 130 133 151 153 156 149 148 147 153 146 151 163 182 174 157 146 148 173 161 147 152 156 149 158 159 158 155 147 142 144 146 152 157 157 149 152 143 140 149 166 157 145 145 143 140 144 148 150 143 142 142 142 148 160 147 133 127 135 100 102 108 97 97 99 106 99 105 113 116 111 113
189 250 247 265 245 245 271 283 300 295 284 274 341 333 280 103 326 216 243 265 4 63 107 116 128 122 119 138 150 154 142 139 139 135 144 146 154 168 187 155 159 160 162 175 163 161 155 152 153 158 157 154 154 159 148 152 153 155 157 161 157 160 145 152 154 155 161 158 150 148 150 151 155 157 153 150 142 153 152 161 157 161 166 199 129 109 98 104 99 106 110 109 106 116 118 119 118
205 222 214 266 270 281 271 301 278 274 289 288 332 277 286 284 250 278 147 201 188 120 109 125 129 128 137 150 161 159 153 157 142 145 153 147 151 161 186 186 170 175 174 168 165 170 154 151 161 137 130 131 137 144 149 159 160 160 163 172 172 157 157 150 158 163 190 164 168 168 164 159 163 163 155 151 157 161 166 168 165 157 165 262 168 159 111 93 105 106 111 115 114 117 118 125 123
181 204 220 237 258 304 308 224 282 305 237 151 207 258 300 334 33 276 359 194 125 96 112 136 143 141 147 153 162 161 157 167 160 141 143 151 159 167 181 179 182 170 151 167 170 178 168 154 144 145 138 143 135 149 159 173 165 165 168 173 168 161 156 154 165 175 188 187 178 166 161 161 158 158 154 158 170 168 172 173 176 147 161 204 238 172 78 90 98 114 118 130 131 126 123 124 125
168 167 282 267 291 284 256 317 272 339 284 182 185 241 54 336 74 212 272 190 151 123 138 147 151 142 154 160 166 157 162 164 154 157 161 165 169 169 175 177 172 148 163 174 174 160 141 136 139 152 159 160 157 164 175 178 172 166 170 170 168 165 162 165 168 182 188 186 172 169 164 161 162 158 153 160 172 171 177 183 169 167 185 182 192 118 76 80 109 100 102 104 115 122 117 102 99
225 153 275 289 349 331 260 219 263 150 253 159 160 59 316 346 221 294 277 226 117 131 147 161 155 157 161 162 166 169 177 170 169 181 180 169 151 152 137 65 222 155 168 162 134 112 133 154 170 180 178 167 158 167 184 183 161 164 170 175 170 172 177 172 169 171 179 186 180 173 166 164 167 161 161 168 175 179 179 181 181 190 184 178 154 109 99 78 73 79 76 91 98 102 107 104 89
78 47 143 320 1 329 289 277 282 150 247 138 153 228 272 259 262 290 294 148 127 124 160 170 159 163 172 166 178 183 177 170 181 184 170 147 139 134 152 173 197 175 163 144 104 112 166 189 187 182 173 156 155 167 180 182 168 169 175 179 180 178 180 172 169 161 164 183 181 172 167 175 166 164 162 168 167 170 179 188 193 192 186 170 130 122 119 116 96 88 93 91 109 112 120 126 124
200 245 62 211 18 271 296 34 31 147 165 152 72 208 283 268 306 264 240 179 156 168 181 179 165 171 177 175 183 194 203 181 149 155 160 150 131 150 166 172 176 167 140 111 115 180 192 201 193 175 172 180 182 184 181 179 169 165 181 184 183 179 177 176 155 132 157 174 174 181 177 182 167 166 173 165 173 176 181 190 195 197 170 151 133 135 136 129 127 127 128 107 99 102 107 115 122
18 102 284 322 155 278 296 327 145 165 2 93 96 117 239 288 271 258 267 179 159 180 193 186 171 178 182 182 191 202 202 138 136 166 161 152 138 163 170 172 164 161 157 151 167 178 179 187 197 195 193 197 201 200 191 181 173 167 170 179 172 174 173 162 136 155 150 143 156 173 184 188 172 173 173 168 175 187 189 197 197 171 169 154 140 143 141 143 140 129 128 135 120 115 118 112 118
356 119 250 170 167 252 358 173 329 281 253 26 148 210 325 351 302 315 332 191 182 192 207 190 177 184 184 183 198 208 150 127 147 166 142 124 142 170 178 172 173 168 160 163 164 178 175 194 203 198 196 202 198 192 188 202 218 182 171 165 155 149 151 149 152 151 138 146 158 179 182 193 182 182 179 175 179 190 197 208 191 180 171 161 152 153 150 150 145 137 122 123 134 134 128 126 126
285 10 170 209 169 227 188 308 28 21 69 241 22 189 228 194 302 353 358 230 194 218 230 198 177 190 189 193 203 202 146 143 172 154 144 140 158 174 185 183 167 152 161 166 171 179 189 200 205 197 199 199 202 199 189 180 173 232 241 156 147 152 149 143 150 145 157 150 159 174 186 194 190 189 181 179 188 192 197 202 188 186 168 153 151 151 153 148 142 144 130 108 136 129 136 136 133
194 216 86 347 357 268 235 102 264 13 11 207 330 256 281 262 352 352 338 354 319 295 17 19 205 201 204 209 212 104 98 125 161 132 143 145 153 172 174 173 152 149 167 172 174 188 202 212 204 201 200 203 202 196 211 166 122 119 86 156 151 146 132 145 153 158 170 173 174 157 169 229 200 189 183 179 184 190 190 186 179 182 159 154 147 144 144 143 140 149 137 126 122 123 139 137 135
182 162 161 142 110 200 159 247 277 121 310 279 214 223 250 331 35 336 355 6 43 324 347 347 184 197 199 216 71 85 96 83 83 141 152 160 168 169 171 162 148 152 167 176 180 194 206 213 208 207 206 203 180 172 179 180 158 170 170 171 167 161 160 159 171 174 172 180 171 159 168 202 218 192 188 185 185 183 178 178 177 174 161 151 149 149 154 153 149 140 135 131 127 113 110 129 133
128 100 105 124 86 286 287 273 252 283 65 242 209 228 279 25 26 12 349 17 27 11 5 6 36 354 345 27 75 90 98 131 180 155 161 164 167 165 163 150 142 149 171 185 197 204 206 207 207 213 206 190 187 190 189 188 189 193 199 195 189 164 166 167 181 176 173 183 175 173 179 192 202 194 190 183 190 185 178 172 169 177 157 156 160 164 159 154 148 146 136 137 135 129 133 139 133
135 109 103 60 151 274 237 272 1 303 136 286 65 157 43 51 35 19 19 39 26 12 2 3 351 20 139 131 97 107 116 129 124 132 145 152 161 164 159 153 152 158 185 201 208 205 207 214 219 223 192 193 199 197 192 192 197 198 192 205 193 164 164 185 187 173 180 186 185 180 185 191 195 193 190 187 188 184 171 174 177 173 158 161 149 129 135 140 138 137 135 122 137 142 143 152 147
72 153 149 94 282 241 286 274 337 331 79 260 23 61 49 44 33 30 37 36 31 23 25 11 18 8 24 89 116 120 136 139 158 155 164 169 170 171 171 166 171 177 187 207 209 205 213 218 224 224 211 201 205 200 193 201 189 191 156 317 230 173 192 200 193 170 168 177 190 192 191 191 191 194 193 188 187 189 179 172 179 171 161 154 146 142 143 151 158 155 156 145 144 133 127 152 162
116 96 97 202 230 49 311 287 30 359 100 267 95 96 65 323 10 37 22 26 18 27 21 19 35 34 12 4 161 141 126 137 157 180 185 180 182 180 183 181 175 178 200 207 206 210 217 224 226 226 225 212 218 222 215 195 172 124 123 22 24 240 198 187 197 166 168 176 197 196 193 186 187 191 193 194 194 190 180 176 168 172 168 169 165 155 159 170 156 167 153 149 145 143 150 164 178
336 144 137 143 185 225 156 251 338 329 15 71 91 83 53 12 29 19 5 9 31 19 18 31 34 35 34 34 30 21 112 146 149 157 192 201 197 202 203 194 184 208 213 214 207 210 223 233 248 264 296 339 349 317 283 278 210 104 106 71 108 104 125 170 177 187 183 187 188 187 193 181 185 191 193 198 198 191 186 173 166 172 172 172 168 162 167 176 172 167 162 153 166 152 159 152 180
264 236 178 188 177 172 280 332 25 21 301 359 112 47 61 313 51 35 350 20 32 18 31 35 34 32 34 35 29 32 45 119 149 176 191 203 227 336 355 351 332 354 345 346 345 339 342 348 349 349 355 5 357 355 353 343 312 236 163 188 193 194 204 186 196 191 178 181 183 168 181 182 185 191 193 200 202 187 186 178 167 167 174 172 176 175 163 152 168 171 176 166 169 172 156 158 172
141 256 187 191 177 141 170 239 78 22 144 277 94 129 154 316 45 16 351 44 41 29 39 39 36 36 37 38 37 41 41 31 30 18 281 275 341 349 19 28 45 39 28 34 29 20 13 3 3 4 2 1 2 353 351 345 334 320 260 216 198 193 202 299 12 186 188 163 143 173 182 183 190 188 192 194 198 190 183 174 172 177 174 173 174 163 164 174 180 182 167 171 173 159 158 165 179
201 243 168 169 133 155 197 153 159 204 261 288 54 108 133 93 11 25 322 39 39 39 39 37 33 27 39 45 46 42 35 37 43 36 32 24 30 36 40 43 42 43 50 69 102 107 78 52 32 0 328 349 5 2 351 342 320 323 317 302 314 12 224 157 127 116 140 152 163 171 176 190 192 195 192 195 194 185 177 171 176 176 176 176 176 180 178 175 170 174 178 168 171 169 174 172 179
217 177 150 162 172 179 137 120 125 134 111 264 323 355 73 46 288 347 30 52 35 42 28 27 35 30 28 38 45 45 44 47 46 47 45 44 44 41 40 39 24 32 32 21 195 129 107 105 117 232 341 358 327 347 325 288 254 298 301 308 303 315 119 123 119 126 148 163 177 172 187 191 193 193 198 199 194 181 176 175 175 178 177 180 184 183 179 171 175 172 170 169 177 176 178 174 177
261 132 89 87 81 71 119 118 109 3 87 258 270 29 119 315 341 352 40 58 42 35 18 12 24 34 33 35 32 32 38 39 44 45 42 41 39 40 35 40 24 8 356 351 331 22 82 94 73 31 360 279 247 264 285 228 185 175 245 236 237 247 139 117 117 131 153 171 186 186 187 188 188 185 201 216 186 184 187 173 179 184 186 181 186 184 176 176 179 180 181 183 178 177 180 175 187
140 114 87 56 44 63 45 69 100 78 38 260 237 312 131 74 307 348 359 38 33 43 27 10 23 38 42 39 36 30 29 29 27 27 28 30 32 30 24 25 11 10 1 357 350 358 64 83 97 73 305 275 288 274 230 237 193 184 199 196 197 181 155 141 139 137 148 170 192 190 188 144 116 177 178 214 208 191 196 193 188 193 188 185 185 179 183 184 187 187 175 143 204 188 178 177 178
123 122 126 87 22 21 29 346 36 101 267 260 302 58 90 161 268 319 51 62 42 50 58 41 29 36 34 32 34 31 29 26 26 29 23 21 23 21 20 18 11 8 12 6 0 354 6 85 109 113 150 279 323 343 340 276 206 199 201 207 198 191 174 176 172 167 168 184 191 193 159 143 192 185 194 208 203 190 189 194 193 191 187 184 193 187 187 188 187 181 168 180 188 194 181 172 171
81 97 104 130 213 55 272 13 144 153 170 347 317 348 36 45 198 74 51 45 51 70 69 54 41 33 30 30 32 33 33 32 28 25 24 29 24 22 19 17 16 11 9 5 5 358 354 5 67 139 149 193 238 322 333 316 260 216 205 206 203 207 215 206 187 172 169 185 176 166 212 178 200 192 202 208 207 196 173 186 196 196 182 187 190 184 199 192 188 184 189 187 182 180 182 177 176
133 140 151 127 128 98 160 280 279 334 302 248 359 357 86 137 116 102 123 54 58 63 61 59 54 36 25 23 27 33 32 26 22 24 26 25 21 19 18 17 15 9 5 6 7 7 359 352 3 37 136 224 238 209 202 215 290 280 248 216 195 220 242 259 246 214 182 174 153 176 149 249 252 238 196 206 194 181 188 185 168 39 60 70 243 230 233 229 203 191 195 193 182 189 175 180 183
195 142 149 173 138 152 163 180 157 190 193 308 322 63 237 154 193 128 99 72 74 70 73 67 61 45 25 12 20 27 28 25 21 20 21 18 15 16 12 14 12 8 5 4 7 3 356 1 354 360 359 23 4 315 290 215 201 233 241 316 340 15 221 256 248 252 202 177 179 185 180 172 199 274 278 227 192 190 190 154 146 159 166 176 197 203 200 206 211 179 188 208 205 175 180 180 179
193 159 67 112 212 146 127 201 145 167 115 31 358 104 261 168 84 109 117 99 79 65 62 56 50 40 28 32 27 18 15 14 14 15 15 15 16 14 14 11 9 4 1 3 4 360 358 358 1 1 2 343 344 342 350 5 307 308 339 281 221 153 164 226 247 234 220 213 187 175 173 176 176 209 243 226 222 186 142 154 189 186 168 176 192 198 208 215 197 186 197 192 208 179 176 183 180
208 101 169 213 156 104 97 59 64 96 62 41 302 213 236 50 99 121 134 95 76 59 46 35 30 26 32 31 25 26 22 16 10 7 7 7 8 10 9 6 4 5 6 1 354 353 355 357 357 360 358 348 327 297 296 276 303 292 165 201 227 212 197 198 213 225 232 251 226 199 185 163 164 196 229 228 207 146 149 187 207 187 178 180 192 184 179 202 213 206 214 191 193 188 177 186 173
96 147 214 152 98 108 125 162 348 56 134 182 49 238 176 101 180 182 132 115 90 72 56 41 30 25 26 20 17 19 17 10 5 7 12 12 10 9 6 1 3 3 359 354 351 346 352 356 357 354 351 348 341 325 307 254 242 261 227 235 267 269 253 235 227 224 183 204 217 229 226 166 168 184 209 224 218 175 163 193 204 191 186 186 197 190 179 191 183 184 204 218 201 178 177 171 178
161 179 155 115 189 160 344 97 126 113 82 155 321 343 324 241 232 204 162 139 113 86 67 34 31 27 21 15 13 14 15 10 8 8 7 7 6 5 3 0 357 355 356 351 345 347 354 358 354 355 349 341 340 341 330 289 206 243 256 196 241 245 227 228 231 227 209 196 200 221 240 224 172 178 190 201 205 184 170 191 204 205 199 192 187 188 179 179 176 192 201 214 189 178 167 171 172
34 101 91 333 101 147 125 194 162 109 173 98 216 357 227 235 108 220 179 152 128 117 81 48 41 28 22 21 16 14 12 11 7 5 5 1 0 2 2 360 357 353 350 351 347 347 354 355 351 349 345 349 346 344 341 341 332 282 256 232 218 210 223 238 241 234 235 223 197 194 221 230 213 192 190 188 193 188 182 191 209 209 202 199 186 186 180 176 169 189 192 212 190 169 167 168 168
35 48 358 34 30 211 104 35 82 152 156 164 139 193 252 263 50 54 80 82 89 100 99 78 46 25 30 24 19 15 13 10 11 7 0 1 360 0 2 2 360 354 351 351 353 353 351 346 350 351 344 340 340 339 338 334 329 310 265 257 232 207 231 250 259 249 240 244 234 194 215 225 208 205 187 189 194 192 188 193 204 211 203 202 194 184 174 170 175 176 195 204 185 171 168 166 160
157 155 183 159 121 116 123 213 32 75 109 172 145 214 232 78 61 75 74 99 102 94 101 87 48 32 23 21 20 20 13 13 12 8 7 5 3 359 359 2 1 1 0 360 359 355 355 354 348 342 339 337 337 334 335 326 318 316 298 265 246 223 224 234 248 242 236 250 257 233 228 228 219 208 184 194 197 195 185 178 179 187 192 178 192 194 177 182 187 176 186 223 163 151 171 162 158